< < Back
Terminal Aerodrome Forecast


Current Version              Previous Versions:   1  2  3  4  5  6  7  8  9  

Terminal Aerodrome Forecast

292
FTUS42 KILM 181327 AAA
TAFILM
TAF AMD
KILM 181327Z 1813/1912 00000KT 4SM RA BR BKN005
     FM181500 05005KT 5SM -SHRA BR BKN020
     FM181600 09005KT P6SM VCSH SCT015 BKN040
     FM190200 05003KT P6SM BKN080=

Latest METAR

393
SAUS70 KWBC 190400 RRD
MTRILM
METAR KILM 190353Z AUTO 00000KT 10SM CLR 18/17 A3000 RMK AO2 SLP158
T01830172


USA.gov is the U.S. government's official web portal to all federal, state and local government web resources and services.